Regional Weather Roundup
Issued by NWS

Home | Current Version | Previous Version | Graphics & Text | Print | Product List | Glossary On
Versions: 1 2 3 4 5 6 7 8 9 10 11 12 13 14 15 16 17 18 19 20 21 22 23 24 25 26 27 28 29 30 31 32 33 34 35 36 37 38 39 40 41 42 43 44 45 46 47 48 49 50
432
ASUS43 KBIS 251931
RWRND
NORTH DAKOTA REGIONAL WEATHER ROUNDUP
NATIONAL WEATHER SERVICE EASTERN NORTH DAKOTA/GRAND FORKS ND
200 PM CDT SUN JUN 25 2017

  NOTE: "FAIR" INDICATES FEW OR NO CLOUDS BELOW 12,000 FEET WITH NO
  SIGNIFICANT WEATHER AND/OR OBSTRUCTIONS TO VISIBILITY.

NDZ001>003-009>011-017-252000-
...NORTHWEST NORTH DAKOTA...

CITY           SKY/WX    TMP DP  RH WIND       PRES   REMARKS
WILLISTON      PTSUNNY   71  44  37 CALM      30.26F
MINOT          PTSUNNY   67  44  43 VRB5      30.23F
MINOT AFB      FAIR      67  42  41 N10G17    30.23S
$$

NDZ018>021-031>035-040>046-252000-
...SOUTHWEST NORTH DAKOTA...

CITY           SKY/WX    TMP DP  RH WIND       PRES   REMARKS
BISMARCK       FAIR      61  50  67 SW5       30.26F
DICKINSON      FAIR      70  32  24 N9        30.24F
GARRISON         N/A     64  47  53 N9        30.23F
HETTINGER      FAIR      72  36  26 N9G18     30.26S
$$

NDZ004>008-012>016-024-026-027-054-252000-
...NORTHEAST NORTH DAKOTA...

CITY           SKY/WX    TMP DP  RH WIND       PRES   REMARKS
GRAND FORKS    PTSUNNY   64  44  48 N9G22     30.20F
GRAND FORKS AF FAIR      65  42  43 N15       30.21F
DEVILS LAKE    CLOUDY    62  42  47 NW10G18   30.23F
$$

NDZ022-023-025-028>030-036>039-047>053-252000-
...SOUTHEAST NORTH DAKOTA...

CITY           SKY/WX    TMP DP  RH WIND       PRES   REMARKS
JAMESTOWN      PTSUNNY   65  46  50 NW12      30.22F
FARGO          FAIR      67  41  38 NW16G29   30.19F
WAHPETON       FAIR      64  37  36 N14G21    30.20F
$$




USA.gov is the U.S. government's official web portal to all federal, state and local government web resources and services.